| time (UTC) | temp F | wind direction | speed knots | gust knots | rain 1hr in | rain 24hr in | rain mn in | humidity % | barometer mb |
| 20260906033010 | 55 | 280 | 8.7 | 0.0 | 0.00 | 0.00 | 0.00 | 80 | 1017.1 |
| 20260906031510 | 56 | 280 | 8.7 | 0.0 | 0.00 | 0.00 | 0.00 | 80 | 1017.1 |
| 20260906030008 | 56 | 280 | 8.7 | 0.0 | 0.00 | 0.00 | 0.00 | 80 | 1017.1 |
| 20260905204509 | 60 | 280 | 11.3 | 0.0 | 0.00 | 0.00 | 0.00 | 66 | 1014.1 |
| 20260905203009 | 60 | 280 | 11.3 | 0.0 | 0.00 | 0.00 | 0.00 | 66 | 1014.1 |
| 20260905201509 | 60 | 280 | 11.3 | 0.0 | 0.00 | 0.00 | 0.00 | 67 | 1013.8 |
| 20260905200010 | 60 | 290 | 12.2 | 0.0 | 0.00 | 0.00 | 0.00 | 67 | 1013.8 |
| 20260905194509 | 61 | 270 | 7.0 | 0.0 | 0.00 | 0.00 | 0.00 | 66 | 1013.5 |
| 20260905193009 | 61 | 270 | 7.0 | 0.0 | 0.00 | 0.00 | 0.00 | 66 | 1013.5 |
| 20260905191510 | 61 | 270 | 7.0 | 0.0 | 0.00 | 0.00 | 0.00 | 65 | 1013.1 |
| 20260905190009 | 61 | 290 | 8.7 | 0.0 | 0.00 | 0.00 | 0.00 | 65 | 1013.1 |
| 20260905184509 | 62 | 290 | 8.7 | 0.0 | 0.00 | 0.00 | 0.00 | 66 | 1012.6 |
| 20260905183010 | 62 | 270 | 8.7 | 0.0 | 0.00 | 0.00 | 0.00 | 66 | 1012.6 |
| 20260905181509 | 63 | 270 | 8.7 | 0.0 | 0.00 | 0.00 | 0.00 | 66 | 1012.2 |
| 20260905180010 | 63 | 280 | 11.3 | 0.0 | 0.00 | 0.00 | 0.00 | 66 | 1012.2 |
| 20260905174509 | 62 | 280 | 11.3 | 0.0 | 0.00 | 0.00 | 0.00 | 69 | 1012.0 |
| 20260905173010 | 62 | 280 | 9.6 | 0.0 | 0.00 | 0.00 | 0.00 | 69 | 1012.0 |
| 20260905171510 | 62 | 280 | 9.6 | 0.0 | 0.00 | 0.00 | 0.00 | 71 | 1011.6 |
| 20260905170009 | 62 | 280 | 8.7 | 0.0 | 0.00 | 0.00 | 0.00 | 71 | 1011.6 |
| 20260905164509 | 62 | 280 | 8.7 | 0.0 | 0.00 | 0.00 | 0.00 | 71 | 1011.3 |
| 20260905163009 | 62 | 290 | 13.0 | 0.0 | 0.00 | 0.00 | 0.00 | 71 | 1011.3 |
| 20260905161509 | 60 | 290 | 13.0 | 0.0 | 0.00 | 0.00 | 0.00 | 82 | 1011.1 |
| 20260905160010 | 60 | 290 | 9.6 | 0.0 | 0.00 | 0.00 | 0.00 | 82 | 1011.1 |
| 20260905154509 | 59 | 290 | 9.6 | 0.0 | 0.00 | 0.00 | 0.00 | 82 | 1011.3 |
| 20260905153011 | 59 | 270 | 12.2 | 0.0 | 0.00 | 0.00 | 0.00 | 82 | 1011.3 |
| 20260905151509 | 63 | 270 | 12.2 | 0.0 | 0.00 | 0.00 | 0.00 | 69 | 1010.7 |
| 20260905150010 | 63 | 290 | 15.6 | 0.0 | 0.00 | 0.00 | 0.00 | 69 | 1010.7 |
| 20260905144510 | 67 | 290 | 15.6 | 0.0 | 0.00 | 0.00 | 0.00 | 57 | 1009.6 |
| 20260905143009 | 67 | 250 | 15.6 | 0.0 | 0.00 | 0.00 | 0.00 | 57 | 1009.6 |
| 20260905141510 | 67 | 250 | 15.6 | 0.0 | 0.00 | 0.00 | 0.00 | 56 | 1009.8 |
| 20260905140009 | 67 | 260 | 18.2 | 0.0 | 0.00 | 0.00 | 0.00 | 56 | 1009.8 |
| 20260905134509 | 70 | 260 | 18.2 | 0.0 | 0.00 | 0.00 | 0.00 | 53 | 1009.4 |
| 20260905133010 | 70 | 250 | 13.0 | 0.0 | 0.00 | 0.00 | 0.00 | 53 | 1009.4 |
| 20260905131509 | 69 | 250 | 13.0 | 0.0 | 0.00 | 0.00 | 0.00 | 56 | 1009.6 |
| 20260905130010 | 69 | 260 | 12.2 | 0.0 | 0.00 | 0.00 | 0.00 | 56 | 1009.6 |
| 20260905124510 | 68 | 260 | 12.2 | 0.0 | 0.00 | 0.00 | 0.00 | 57 | 1009.7 |
| 20260905123009 | 68 | 260 | 14.8 | 0.0 | 0.00 | 0.00 | 0.00 | 57 | 1009.7 |
| 20260905121509 | 68 | 260 | 14.8 | 0.0 | 0.00 | 0.00 | 0.00 | 54 | 1009.6 |
| 20260905120010 | 68 | 270 | 14.8 | 0.0 | 0.00 | 0.00 | 0.00 | 54 | 1009.6 |
| 20260905114510 | 69 | 270 | 14.8 | 0.0 | 0.00 | 0.00 | 0.00 | 52 | 1009.4 |
| 20260905113009 | 69 | 260 | 11.3 | 0.0 | 0.00 | 0.00 | 0.00 | 52 | 1009.4 |
| 20260905111509 | 67 | 260 | 11.3 | 0.0 | 0.00 | 0.00 | 0.00 | 60 | 1009.6 |
| 20260905110009 | 67 | 250 | 9.6 | 0.0 | 0.00 | 0.00 | 0.00 | 60 | 1009.6 |
| 20260905104509 | 67 | 250 | 9.6 | 0.0 | 0.00 | 0.00 | 0.00 | 56 | 1009.7 |
| 20260905103009 | 67 | 260 | 14.8 | 0.0 | 0.00 | 0.00 | 0.00 | 56 | 1009.7 |
| 20260905101510 | 67 | 260 | 14.8 | 0.0 | 0.00 | 0.00 | 0.00 | 58 | 1009.7 |
| 20260905100009 | 67 | 260 | 13.0 | 0.0 | 0.00 | 0.00 | 0.00 | 58 | 1009.7 |
| 20260905094509 | 66 | 260 | 11.3 | 0.0 | 0.00 | 0.00 | 0.00 | 61 | 1009.5 |
| 20260905093010 | 66 | 260 | 11.3 | 0.0 | 0.00 | 0.00 | 0.00 | 61 | 1009.5 |
| 20260905091509 | 65 | 260 | 11.3 | 0.0 | 0.00 | 0.00 | 0.00 | 67 | 1009.5 |
| 20260905090010 | 65 | 270 | 11.3 | 0.0 | 0.00 | 0.00 | 0.00 | 67 | 1009.5 |
| 20260905084509 | 63 | 270 | 9.6 | 0.0 | 0.00 | 0.00 | 0.00 | 70 | 1009.2 |
| 20260905083009 | 63 | 270 | 9.6 | 0.0 | 0.00 | 0.00 | 0.00 | 70 | 1009.2 |
| 20260905081510 | 62 | 270 | 9.6 | 0.0 | 0.00 | 0.00 | 0.00 | 71 | 1008.9 |
| 20260905080010 | 62 | 250 | 10.4 | 0.0 | 0.00 | 0.00 | 0.00 | 71 | 1008.9 |
| 20260905074510 | 61 | 250 | 10.4 | 0.0 | 0.00 | 0.00 | 0.00 | 74 | 1008.8 |
| 20260905073009 | 61 | 260 | 9.6 | 0.0 | 0.00 | 0.00 | 0.00 | 74 | 1008.8 |
| 20260905071509 | 60 | 260 | 9.6 | 0.0 | 0.00 | 0.00 | 0.00 | 77 | 1008.6 |
| 20260905070009 | 60 | 260 | 9.6 | 0.0 | 0.00 | 0.00 | 0.00 | 77 | 1008.6 |
| 20260905064510 | 59 | 260 | 9.6 | 0.0 | 0.00 | 0.00 | 0.00 | 79 | 1008.3 |
| 20260905063010 | 59 | 260 | 9.6 | 0.0 | 0.00 | 0.00 | 0.00 | 79 | 1008.3 |
| 20260905061510 | 58 | 260 | 8.7 | 0.0 | 0.00 | 0.00 | 0.00 | 81 | 1008.0 |
| 20260905060009 | 58 | 260 | 8.7 | 0.0 | 0.00 | 0.00 | 0.00 | 81 | 1008.0 |
| 20260905054510 | 58 | 260 | 8.7 | 0.0 | 0.00 | 0.00 | 0.00 | 82 | 1007.9 |
| 20260905053021 | 58 | 260 | 9.6 | 0.0 | 0.00 | 0.00 | 0.00 | 82 | 1007.9 |
| 20260905051509 | 58 | 260 | 9.6 | 0.0 | 0.00 | 0.00 | 0.00 | 82 | 1007.5 |
| 20260905050010 | 58 | 260 | 8.7 | 0.0 | 0.00 | 0.00 | 0.00 | 82 | 1007.5 |
| 20260905044509 | 59 | 260 | 8.7 | 0.0 | 0.00 | 0.00 | 0.00 | 81 | 1007.3 |
| 20260905043010 | 59 | 260 | 8.7 | 0.0 | 0.00 | 0.00 | 0.00 | 81 | 1007.3 |
| 20260905041509 | 59 | 260 | 9.6 | 0.0 | 0.00 | 0.00 | 0.00 | 81 | 1007.0 |
| 20260905040009 | 59 | 260 | 9.6 | 0.0 | 0.00 | 0.00 | 0.00 | 81 | 1007.0 |
| 20260905034510 | 59 | 260 | 7.8 | 0.0 | 0.00 | 0.00 | 0.00 | 81 | 1006.6 |